Tracking 30995 objects as of 5-Jul-2025
HD Live streaming from Space Station
objects crossing your sky now

SL-12 DEB

Track SL-12 DEB now!
10-day predictions


NORAD ID: 27805
Int'l Code: 1992-047L
Perigee: 427.3 km
Apogee: 10,456.3 km
Inclination: 65.2 °
Period: 213.0 minutes
Semi major axis: 11812 km
RCS: 0.048 m2 (small)
Launch date: July 30, 1992
Source: Commonwealth of Independent States (former USSR) (CIS)
Launch site: TYURATAM MISSILE AND SPACE COMPLEX (TTMTR)

Note: This is SATELLITE DEBRIS
Your satellite tracking list
Your tracking list is empty




NASA's NSSDC Master Catalog

Two Line Element Set (TLE):
1 27805U 92047L   25186.89566073  .00014083  00000-0  73157-2 0  9991
2 27805  65.2122  49.1798 4244959  91.6361 315.9854  6.76194900501466
Source of the keplerian elements: AFSPC